User: anonymous   Login
Location: Les Jeannots
(43.2262°N, 5.5774°E)
Time: 22:37:22
(UTC+00:00)
Language:

Cosmos 1844 Rocket - Orbit

View from above orbital plane
View from above orbital plane
View from above satellite
View from above satellite

Ground track
Ground track

The orbit data is extracted from the following two-line orbital elements,

1 17974U 87041B   20269.80962983 -.00000055 +00000-0 -35963-5 0  9995
2 17974 071.0062 268.6213 0014041 356.3817 045.6702 14.17269130726022
Epoch (UTC): 25 September 2020 19:25:52
Eccentricity: 0.0014041
inclination: 71.0062°
perigee height: 824 km
apogee height: 845 km
right ascension of ascending node: 268.6213°
argument of perigee: 356.3817°
revolutions per day: 14.17269130
mean anomaly at epoch: 45.6702°
orbit number at epoch: 72602

The dashed part of the orbit path shows where the satellite is in the earth's shadow,  

DLR